Location: Mat�lon
(46.2791°N, 7.1028°E)
Time: 18:24:53
(UTC+00:00)

Lacrosse 5 rocket - Visible Passes

Search period start: 16 January 2021 00:00
Search period end: 26 January 2021 00:00
Orbit: 460 x 635 km, 57.0° (Epoch: 15 January)

Date Brightness Start Highest point End Pass type
(mag) Time Alt. Az. Time Alt. Az. Time Alt. Az.
16 Jan 4.2 04:04:27 11° NE 04:04:27 11° NE 04:04:41 10° NE visible
16 Jan 2.8 05:40:04 16° NNW 05:42:13 25° NNE 05:45:22 10° ENE visible
17 Jan 4.3 03:58:44 11° NE 03:58:44 11° NE 03:58:55 10° NE visible
17 Jan 2.6 05:34:22 18° NNW 05:36:25 28° NNE 05:39:42 10° E visible
18 Jan 4.3 03:53:03 11° NE 03:53:03 11° NE 03:53:11 10° NE visible
18 Jan 2.4 05:28:41 21° NNW 05:30:35 32° NNE 05:34:00 10° E visible
19 Jan 4.4 03:47:25 10° NE 03:47:25 10° NE 03:47:29 10° NE visible
19 Jan 2.2 05:23:02 25° NNW 05:24:44 39° NNE 05:28:16 10° E visible
20 Jan 4.5 03:41:48 10° ENE 03:41:48 10° ENE 03:41:49 10° ENE visible
20 Jan 1.8 05:17:26 31° NNW 05:18:52 47° NNE 05:22:30 10° ESE visible
21 Jan 1.5 05:11:53 40° NNW 05:12:59 59° NE 05:16:41 10° ESE visible
22 Jan 1.1 05:06:23 57° NNW 05:07:05 76° NE 05:10:48 10° SE visible
23 Jan 0.9 05:00:58 80° W 05:01:09 84° SW 05:04:52 10° SE visible
24 Jan 1.3 04:55:38 58° S 04:55:38 58° S 04:58:52 10° SE visible
25 Jan 2.2 04:50:23 34° S 04:50:23 34° S 04:52:48 10° SSE visible
